Time,TemperatureF,DewpointF,PressureIn,WindDirection,WindDirectionDegrees,WindSpeedMPH,WindSpeedGustMPH,Humidity,HourlyPrecipIn,Conditions,Clouds,dailyrainin,SoftwareType,DateUTC
2013-10-12 00:00:00,57.0,-99.9,30.06,South,170,2.0,10.0,-999,-99.99,,,-99.99,,2013-10-12 04:00:00,
2013-10-12 00:14:00,58.0,-99.9,30.06,South,177,5.0,12.0,-999,-99.99,,,-99.99,,2013-10-12 04:14:00,
2013-10-12 00:24:00,57.0,-99.9,30.06,South,170,2.0,10.0,-999,-99.99,,,-99.99,,2013-10-12 04:24:00,
2013-10-12 00:33:00,57.0,-99.9,30.06,South,170,2.0,10.0,-999,-99.99,,,-99.99,,2013-10-12 04:33:00,
2013-10-12 00:44:00,57.0,-99.9,30.06,South,170,2.0,10.0,-999,-99.99,,,-99.99,,2013-10-12 04:44:00,
2013-10-12 00:54:00,57.0,-99.9,30.06,South,170,2.0,10.0,-999,-99.99,,,-99.99,,2013-10-12 04:54:00,
2013-10-12 01:40:00,56.0,-99.9,30.05,South,177,6.0,12.0,-999,-99.99,,,-99.99,,2013-10-12 05:40:00,
2013-10-12 02:12:00,56.0,-99.9,30.05,South,177,6.0,12.0,-999,-99.99,,,-99.99,,2013-10-12 06:12:00,
2013-10-12 02:22:00,56.0,-99.9,30.05,South,177,6.0,12.0,-999,-99.99,,,-99.99,,2013-10-12 06:22:00,
2013-10-12 02:32:00,56.0,-99.9,30.05,South,177,6.0,12.0,-999,-99.99,,,-99.99,,2013-10-12 06:32:00,
2013-10-12 02:40:00,56.0,-99.9,30.04,South,172,7.0,17.0,-999,-99.99,,,-99.99,,2013-10-12 06:40:00,
2013-10-12 03:22:00,56.0,-99.9,30.04,South,172,7.0,17.0,-999,-99.99,,,-99.99,,2013-10-12 07:22:00,
2013-10-12 03:32:00,56.0,-99.9,30.04,South,172,7.0,17.0,-999,-99.99,,,-99.99,,2013-10-12 07:32:00,
2013-10-12 03:40:00,56.0,-99.9,30.03,SSE,162,7.0,17.0,-999,-99.99,,,-99.99,,2013-10-12 07:40:00,
2013-10-12 04:12:00,56.0,-99.9,30.03,SSE,162,7.0,17.0,-999,-99.99,,,-99.99,,2013-10-12 08:12:00,
2013-10-12 04:23:00,56.0,-99.9,30.03,SSE,162,7.0,17.0,-999,-99.99,,,-99.99,,2013-10-12 08:23:00,
2013-10-12 04:32:00,56.0,-99.9,30.03,SSE,162,7.0,17.0,-999,-99.99,,,-99.99,,2013-10-12 08:32:00,
2013-10-12 05:22:00,56.0,-99.9,30.03,SSE,168,8.0,15.0,-999,-99.99,,,-99.99,,2013-10-12 09:22:00,
2013-10-12 05:40:00,56.0,-99.9,30.03,SSE,162,9.0,15.0,-999,-99.99,,,-99.99,,2013-10-12 09:40:00,
2013-10-12 05:43:00,56.0,-99.9,30.03,South,170,8.0,19.0,-999,-99.99,,,-99.99,,2013-10-12 09:43:00,
2013-10-12 05:54:00,56.0,-99.9,30.03,South,170,8.0,19.0,-999,-99.99,,,-99.99,,2013-10-12 09:54:00,
2013-10-12 06:12:00,56.0,-99.9,30.03,SSE,162,9.0,15.0,-999,-99.99,,,-99.99,,2013-10-12 10:12:00,
2013-10-12 06:23:00,56.0,-99.9,30.03,SSE,162,9.0,15.0,-999,-99.99,,,-99.99,,2013-10-12 10:23:00,
2013-10-12 06:32:00,56.0,-99.9,30.03,SSE,162,9.0,15.0,-999,-99.99,,,-99.99,,2013-10-12 10:32:00,
2013-10-12 06:40:00,57.0,-99.9,30.03,SSE,158,8.0,13.0,-999,-99.99,,,-99.99,,2013-10-12 10:40:00,
2013-10-12 07:12:00,57.0,-99.9,30.03,SSE,158,8.0,13.0,-999,-99.99,,,-99.99,,2013-10-12 11:12:00,
2013-10-12 07:22:00,57.0,-99.9,30.03,SSE,158,8.0,13.0,-999,-99.99,,,-99.99,,2013-10-12 11:22:00,
2013-10-12 07:33:00,57.0,-99.9,30.03,SSE,158,8.0,13.0,-999,-99.99,,,-99.99,,2013-10-12 11:33:00,
2013-10-12 07:40:00,57.0,-99.9,30.02,SSE,159,9.0,15.0,-999,-99.99,,,-99.99,,2013-10-12 11:40:00,
2013-10-12 08:12:00,57.0,-99.9,30.02,SSE,159,9.0,15.0,-999,-99.99,,,-99.99,,2013-10-12 12:12:00,
2013-10-12 08:22:00,57.0,-99.9,30.02,SSE,159,9.0,15.0,-999,-99.99,,,-99.99,,2013-10-12 12:22:00,
2013-10-12 08:32:00,57.0,-99.9,30.02,SSE,159,9.0,15.0,-999,-99.99,,,-99.99,,2013-10-12 12:32:00,
2013-10-12 08:40:00,58.0,-99.9,30.02,SE,146,8.0,16.0,-999,-99.99,,,-99.99,,2013-10-12 12:40:00,
2013-10-12 09:22:00,58.0,-99.9,30.02,SE,146,8.0,16.0,-999,-99.99,,,-99.99,,2013-10-12 13:22:00,
2013-10-12 09:32:00,58.0,-99.9,30.02,SE,146,8.0,16.0,-999,-99.99,,,-99.99,,2013-10-12 13:32:00,
2013-10-12 09:40:00,59.0,-99.9,30.02,SSE,165,6.0,15.0,-999,-99.99,,,-99.99,,2013-10-12 13:40:00,
2013-10-12 10:12:00,59.0,-99.9,30.02,SSE,165,6.0,15.0,-999,-99.99,,,-99.99,,2013-10-12 14:12:00,
2013-10-12 10:22:00,59.0,-99.9,30.02,SSE,165,6.0,15.0,-999,-99.99,,,-99.99,,2013-10-12 14:22:00,
2013-10-12 10:32:00,59.0,-99.9,30.02,SSE,165,6.0,15.0,-999,-99.99,,,-99.99,,2013-10-12 14:32:00,
2013-10-12 10:40:00,63.0,-99.9,30.02,SSE,161,8.0,17.0,-999,-99.99,,,-99.99,,2013-10-12 14:40:00,
2013-10-12 11:11:00,63.0,-99.9,30.02,SSE,161,8.0,17.0,-999,-99.99,,,-99.99,,2013-10-12 15:11:00,
2013-10-12 11:22:00,63.0,-99.9,30.02,SSE,161,8.0,17.0,-999,-99.99,,,-99.99,,2013-10-12 15:22:00,
2013-10-12 11:33:00,63.0,-99.9,30.02,SSE,161,8.0,17.0,-999,-99.99,,,-99.99,,2013-10-12 15:33:00,
2013-10-12 11:40:00,67.0,-99.9,30.01,South,175,5.0,16.0,-999,-99.99,,,-99.99,,2013-10-12 15:40:00,
2013-10-12 12:23:00,67.0,-99.9,30.01,South,175,5.0,16.0,-999,-99.99,,,-99.99,,2013-10-12 16:23:00,
2013-10-12 12:33:00,67.0,-99.9,30.01,South,175,5.0,16.0,-999,-99.99,,,-99.99,,2013-10-12 16:33:00,
2013-10-12 12:40:00,70.0,-99.9,30.00,South,190,4.0,12.0,-999,-99.99,,,-99.99,,2013-10-12 16:40:00,
2013-10-12 13:13:00,70.0,-99.9,30.00,South,190,4.0,12.0,-999,-99.99,,,-99.99,,2013-10-12 17:13:00,
2013-10-12 13:23:00,70.0,-99.9,30.00,South,190,4.0,12.0,-999,-99.99,,,-99.99,,2013-10-12 17:23:00,
2013-10-12 13:34:00,70.0,-99.9,30.00,South,190,4.0,12.0,-999,-99.99,,,-99.99,,2013-10-12 17:34:00,
2013-10-12 13:40:00,75.0,-99.9,29.97,South,173,6.0,14.0,-999,-99.99,,,-99.99,,2013-10-12 17:40:00,
2013-10-12 14:22:00,75.0,-99.9,29.97,South,173,6.0,14.0,-999,-99.99,,,-99.99,,2013-10-12 18:22:00,
2013-10-12 14:32:00,75.0,-99.9,29.97,South,173,6.0,14.0,-999,-99.99,,,-99.99,,2013-10-12 18:32:00,
2013-10-12 14:40:00,76.0,-99.9,29.94,SSE,148,2.0,10.0,-999,-99.99,,,-99.99,,2013-10-12 18:40:00,
2013-10-12 15:11:00,76.0,-99.9,29.94,SSE,148,2.0,10.0,-999,-99.99,,,-99.99,,2013-10-12 19:11:00,
2013-10-12 15:22:00,76.0,-99.9,29.94,SSE,148,2.0,10.0,-999,-99.99,,,-99.99,,2013-10-12 19:22:00,
2013-10-12 15:32:00,76.0,-99.9,29.94,SSE,148,2.0,10.0,-999,-99.99,,,-99.99,,2013-10-12 19:32:00,
2013-10-12 15:40:00,78.0,-99.9,29.93,SSW,202,7.0,15.0,-999,-99.99,,,-99.99,,2013-10-12 19:40:00,
2013-10-12 16:12:00,78.0,-99.9,29.93,SSW,202,7.0,15.0,-999,-99.99,,,-99.99,,2013-10-12 20:12:00,
2013-10-12 16:22:00,78.0,-99.9,29.93,SSW,202,7.0,15.0,-999,-99.99,,,-99.99,,2013-10-12 20:22:00,
2013-10-12 16:32:00,78.0,-99.9,29.93,SSW,202,7.0,15.0,-999,-99.99,,,-99.99,,2013-10-12 20:32:00,
2013-10-12 16:40:00,74.0,-99.9,29.93,SSW,197,6.0,15.0,-999,-99.99,,,-99.99,,2013-10-12 20:40:00,
2013-10-12 17:22:00,74.0,-99.9,29.93,SSW,197,6.0,15.0,-999,-99.99,,,-99.99,,2013-10-12 21:22:00,
2013-10-12 17:35:00,74.0,-99.9,29.93,SSW,197,6.0,15.0,-999,-99.99,,,-99.99,,2013-10-12 21:35:00,
2013-10-12 18:13:00,72.0,-99.9,29.95,SW,223,7.0,16.0,-999,-99.99,,,-99.99,,2013-10-12 22:13:00,
2013-10-12 18:25:00,72.0,-99.9,29.95,SW,223,7.0,16.0,-999,-99.99,,,-99.99,,2013-10-12 22:25:00,
2013-10-12 19:52:00,66.0,-99.9,29.97,SW,232,14.0,19.0,-999,-99.99,,,-99.99,,2013-10-12 23:52:00,
2013-10-12 20:22:00,66.0,-99.9,29.97,WSW,245,16.0,24.0,-999,-99.99,,,-99.99,,2013-10-13 00:22:00,
2013-10-12 20:40:00,62.0,-99.9,29.99,SSW,200,5.0,14.0,-999,-99.99,,,-99.99,,2013-10-13 00:40:00,
2013-10-12 20:52:00,63.0,-99.9,29.99,SW,223,11.0,25.0,-999,-99.99,,,-99.99,,2013-10-13 00:52:00,
2013-10-12 21:12:00,62.0,-99.9,29.99,SSW,200,5.0,14.0,-999,-99.99,,,-99.99,,2013-10-13 01:12:00,
2013-10-12 21:22:00,62.0,-99.9,29.99,SSW,200,5.0,14.0,-999,-99.99,,,-99.99,,2013-10-13 01:22:00,
2013-10-12 21:32:00,62.0,-99.9,29.99,SSW,200,5.0,14.0,-999,-99.99,,,-99.99,,2013-10-13 01:32:00,
2013-10-12 22:43:00,63.0,-99.9,30.00,SSW,212,8.0,19.0,-999,-99.99,,,-99.99,,2013-10-13 02:43:00,
2013-10-12 22:52:00,63.0,-99.9,30.00,SSW,212,8.0,19.0,-999,-99.99,,,-99.99,,2013-10-13 02:52:00,
2013-10-12 23:12:00,63.0,-99.9,30.01,WSW,243,25.0,29.0,-999,-99.99,,,-99.99,,2013-10-13 03:12:00,
2013-10-12 23:40:00,61.0,-99.9,30.03,WSW,255,21.0,25.0,-999,-99.99,,,-99.99,,2013-10-13 03:40:00,